GW0671 Weather Reports


Display with metric or nautical units.
time (UTC)temp
F
wind
direction
speed
MPH
gust
MPH
rain 1hr
in
rain 24hr
in
rain mn
in
humidity
%
barometer
mb
20260504081556 55 163 2.0 6.0 0.00 0.03 0.00 74 1015.3
20260504081057 55 171 2.0 6.0 0.00 0.03 0.00 73 1015.3
20260504080557 55 175 1.0 6.0 0.00 0.03 0.00 73 1015.2
20260504060106 56 146 2.0 5.0 0.00 0.03 0.00 69 1016.6
20260504050556 56 141 2.0 4.0 0.01 0.03 0.00 69 1016.6
20260504050120 56 140 1.0 4.0 0.01 0.03 0.00 69 1016.6
20260504045558 56 185 2.0 4.0 0.01 0.03 0.03 69 1016.5
20260504045058 56 171 1.0 4.0 0.01 0.03 0.03 69 1016.6
20260504044557 56 171 1.0 4.0 0.01 0.03 0.03 69 1016.6
20260504044100 56 161 2.0 4.0 0.01 0.03 0.03 69 1016.6
20260504043602 57 148 1.0 4.0 0.00 0.02 0.02 69 1016.7
20260504043105 57 167 2.0 4.0 0.00 0.02 0.02 68 1016.7
20260504042559 57 161 1.0 6.0 0.00 0.02 0.02 68 1016.8
20260504042100 57 179 2.0 6.0 0.00 0.02 0.02 68 1016.9
20260504041600 57 180 2.0 5.0 0.00 0.02 0.02 68 1016.9
20260504041102 57 181 1.0 5.0 0.00 0.02 0.02 69 1016.9
20260504040559 57 169 1.0 5.0 0.00 0.02 0.02 69 1017.0
20260504040106 56 196 1.0 5.0 0.00 0.02 0.02 69 1017.1
20260504035558 56 162 1.0 5.0 0.00 0.02 0.02 69 1017.1
20260504035059 56 160 1.0 4.0 0.00 0.02 0.02 69 1017.2
20260504034614 56 187 1.0 4.0 0.00 0.02 0.02 70 1017.1
20260504034058 56 169 1.0 4.0 0.00 0.02 0.02 70 1017.1
20260504033558 56 169 0.0 2.0 0.00 0.02 0.02 70 1017.2
20260504033102 56 0 0.0 0.0 0.00 0.02 0.02 71 1017.2
20260504032559 56 0 0.0 0.0 0.00 0.02 0.02 71 1017.1
20260504032101 56 0 0.0 0.0 0.00 0.02 0.02 71 1017.2
20260504031611 56 0 0.0 0.0 0.00 0.02 0.02 71 1017.2
20260504031058 55 0 0.0 0.0 0.00 0.02 0.02 71 1017.3
20260504030601 55 0 0.0 0.0 0.00 0.02 0.02 72 1017.2
20260504030113 55 0 0.0 0.0 0.00 0.02 0.02 73 1017.3
20260504025558 56 0 0.0 0.0 0.00 0.02 0.02 74 1017.2
20260504025058 56 0 0.0 0.0 0.00 0.02 0.02 73 1017.3
20260504024558 56 0 0.0 0.0 0.00 0.02 0.02 75 1017.2
20260504024059 57 0 0.0 0.0 0.00 0.02 0.02 74 1017.1
20260504023559 57 0 0.0 0.0 0.00 0.02 0.02 73 1017.2
20260504023059 57 0 0.0 0.0 0.00 0.02 0.02 70 1017.2
20260504022559 57 0 0.0 0.0 0.00 0.02 0.02 70 1017.3
20260504022059 57 0 0.0 0.0 0.00 0.02 0.02 71 1017.1
20260504021606 57 0 0.0 0.0 0.00 0.02 0.02 69 1017.0
20260504021058 57 0 0.0 0.0 0.00 0.02 0.02 70 1017.0
20260504020559 57 0 0.0 0.0 0.00 0.02 0.02 70 1017.0
20260504020058 57 0 0.0 0.0 0.00 0.02 0.02 69 1017.1
20260504015558 57 0 0.0 0.0 0.00 0.02 0.02 69 1017.1
20260504015059 58 0 0.0 0.0 0.00 0.02 0.02 68 1017.1
20260504014556 58 0 0.0 0.0 0.00 0.02 0.02 71 1017.0
20260504014101 58 0 0.0 0.0 0.00 0.02 0.02 71 1017.1
20260504013558 59 0 0.0 0.0 0.00 0.02 0.02 70 1016.8
20260504013055 59 0 0.0 0.0 0.00 0.02 0.02 68 1016.7
20260504012604 59 0 0.0 0.0 0.00 0.02 0.02 65 1016.7
20260504012101 60 0 0.0 0.0 0.00 0.02 0.02 66 1016.6
20260504011559 60 0 0.0 0.0 0.00 0.02 0.02 64 1016.5
20260504011058 61 0 0.0 0.0 0.00 0.02 0.02 65 1016.5
20260504010558 61 0 0.0 1.0 0.00 0.02 0.02 61 1016.4
20260504010059 61 0 0.0 1.0 0.00 0.02 0.02 61 1016.3
20260504005559 62 169 0.0 2.0 0.00 0.02 0.02 59 1016.3
20260504005059 62 0 0.0 2.0 0.00 0.02 0.02 59 1016.3
20260504004557 63 169 1.0 2.0 0.00 0.02 0.02 58 1016.3
20260504004059 63 0 0.0 0.0 0.00 0.02 0.02 58 1016.3
20260504003558 64 0 0.0 0.0 0.00 0.02 0.02 58 1016.4
20260504003057 64 0 0.0 0.0 0.00 0.02 0.02 56 1016.4
20260504002558 65 0 0.0 2.0 0.00 0.02 0.02 54 1016.4
20260504002058 65 0 0.0 3.0 0.00 0.02 0.02 54 1016.4
20260504001556 66 0 0.0 3.0 0.00 0.02 0.02 53 1016.3
20260504001058 66 182 0.0 2.0 0.00 0.02 0.02 52 1016.4
20260504000557 67 0 0.0 1.0 0.00 0.02 0.02 50 1016.5
20260504000137 67 0 0.0 2.0 0.00 0.02 0.02 49 1016.5
20260503235558 67 0 0.0 2.0 0.00 0.02 0.02 48 1016.5
20260503235059 67 0 1.0 3.0 0.00 0.02 0.02 47 1016.5
20260503234558 67 0 0.0 3.0 0.00 0.02 0.02 47 1016.5
20260503234059 68 188 1.0 4.0 0.00 0.02 0.02 46 1016.6
20260503233559 68 174 1.0 4.0 0.00 0.02 0.02 47 1016.7
20260503233057 68 157 0.0 5.0 0.00 0.02 0.02 47 1016.7
20260503232558 68 157 1.0 7.0 0.00 0.02 0.02 46 1016.7
20260503232058 68 169 3.0 7.0 0.00 0.02 0.02 45 1016.9
20260503231558 68 144 1.0 4.0 0.00 0.02 0.02 45 1017.0
20260503231058 68 155 0.0 4.0 0.00 0.02 0.02 46 1017.0
20260503230558 69 155 1.0 4.0 0.00 0.02 0.02 46 1017.0
20260503230059 69 205 1.0 4.0 0.00 0.02 0.02 44 1017.0
20260503225558 69 0 0.0 4.0 0.00 0.02 0.02 44 1017.0
20260503225058 69 0 1.0 5.0 0.00 0.02 0.02 43 1017.1
20260503224558 69 0 1.0 5.0 0.00 0.02 0.02 43 1017.1
20260503224059 69 173 1.0 3.0 0.00 0.02 0.02 43 1017.2
20260503223558 69 69 0.0 4.0 0.00 0.02 0.02 41 1017.2
20260503223057 69 0 1.0 5.0 0.00 0.02 0.02 44 1017.3
20260503222558 69 0 0.0 5.0 0.00 0.02 0.02 41 1017.4
20260503222058 69 143 3.0 8.0 0.00 0.02 0.02 42 1017.5
20260503221559 69 198 1.0 8.0 0.00 0.02 0.02 42 1017.6
20260503221101 69 0 1.0 7.0 0.00 0.02 0.02 41 1017.5
20260503220559 70 180 2.0 7.0 0.00 0.02 0.02 41 1017.6
20260503220057 70 166 1.0 7.0 0.00 0.02 0.02 42 1017.6
20260503215558 71 138 1.0 8.0 0.00 0.03 0.02 38 1017.6
20260503215058 71 163 3.0 8.0 0.00 0.03 0.02 39 1017.6
20260503214557 72 162 2.0 5.0 0.00 0.03 0.02 40 1017.6
20260503214058 72 158 1.0 6.0 0.00 0.03 0.02 40 1017.7
20260503213604 72 147 1.0 6.0 0.00 0.03 0.02 41 1017.8
20260503213058 72 44 0.0 5.0 0.00 0.03 0.02 39 1017.8
20260503212558 72 111 1.0 5.0 0.00 0.03 0.02 37 1018.0
20260503212057 72 168 1.0 6.0 0.00 0.03 0.02 38 1018.0
20260503211603 72 355 1.0 9.0 0.00 0.03 0.02 42 1018.0
20260503211057 72 188 2.0 9.0 0.00 0.03 0.02 39 1018.1
20260503210558 72 0 1.0 4.0 0.00 0.03 0.02 40 1018.1
20260503210057 72 48 1.0 4.0 0.00 0.03 0.02 37 1018.1
20260503205558 72 12 1.0 7.0 0.00 0.03 0.02 34 1018.2
20260503205102 72 123 2.0 8.0 0.00 0.03 0.02 41 1018.3
20260503204557 72 184 2.0 8.0 0.00 0.03 0.02 39 1018.4
20260503204100 72 147 3.0 8.0 0.00 0.03 0.02 38 1018.3
20260503203601 72 155 1.0 5.0 0.00 0.03 0.02 37 1018.5
20260503203109 72 177 1.0 7.0 0.00 0.03 0.02 40 1018.6
20260503202558 72 90 1.0 7.0 0.00 0.03 0.02 38 1018.4
20260503202101 72 159 1.0 7.0 0.00 0.03 0.02 38 1018.7
20260503201600 71 136 2.0 9.0 0.00 0.03 0.02 40 1018.7
20260503201103 71 159 3.0 10.0 0.01 0.03 0.02 43 1018.8
20260503200558 71 179 4.0 10.0 0.01 0.03 0.02 40 1019.1
20260503200057 72 5 2.0 6.0 0.01 0.03 0.02 42 1019.3
20260503195558 71 211 3.0 6.0 0.01 0.03 0.02 42 1019.5
20260503195058 71 0 0.0 5.0 0.01 0.03 0.02 43 1019.5
20260503194602 71 0 2.0 11.0 0.01 0.03 0.02 41 1019.7
20260503194059 70 194 1.0 11.0 0.01 0.03 0.02 47 1019.8
20260503193558 71 185 1.0 11.0 0.01 0.03 0.02 42 1019.8
20260503193100 71 0 3.0 11.0 0.01 0.03 0.02 45 1019.9